Location: Peterborough
(44.3091°N, 78.3197°W)
Time: 11:14:59
(UTC-04:00)

Tiangong - Visible Passes

Search period start: 12 October 2024 00:00
Search period end: 22 October 2024 00:00
Orbit: 372 x 377 km, 41.5° (Epoch: 12 October)

Date Brightness Start Highest point End Pass type
(mag) Time Alt. Az. Time Alt. Az. Time Alt. Az.
17 Oct 0.3 06:52:42 10° SSW 06:54:59 19° SSE 06:57:18 10° ESE visible
18 Oct 0.6 05:50:33 10° S 05:51:51 12° SSE 05:53:09 10° SE visible
19 Oct -0.3 06:22:19 12° SW 06:24:34 25° SSE 06:27:12 10° ESE visible
20 Oct 0.5 05:22:03 15° SE 05:22:03 15° SE 05:23:19 10° ESE visible
20 Oct -1.2 06:54:25 10° WSW 06:57:21 42° S 07:00:19 10° E visible
21 Oct -1.0 05:53:35 32° S 05:53:51 32° SSE 05:56:40 10° E visible
